| time (UTC) | temp C | wind direction | speed KPH | gust KPH | rain 1hr cm | rain 24hr cm | rain mn cm | humidity % | barometer mb |
| 20260505070846 | 32 | 336 | 6.4 | 0.0 | 0.00 | 0.00 | 0.00 | 35 | |
| 20260505070337 | 32 | 300 | 3.2 | 0.0 | 0.00 | 0.00 | 0.00 | 32 | |
| 20260505065828 | 32 | 358 | 6.4 | 0.0 | 0.00 | 0.00 | 0.00 | 34 | |
| 20260505065318 | 32 | 305 | 6.4 | 0.0 | 0.00 | 0.00 | 0.00 | 36 | |
| 20260505064256 | 32 | 339 | 1.6 | 0.0 | 0.00 | 0.00 | 0.00 | 37 | |
| 20260505063747 | 32 | 342 | 8.0 | 0.0 | 0.00 | 0.00 | 0.00 | 36 | |
| 20260505063238 | 32 | 276 | 8.0 | 0.0 | 0.00 | 0.00 | 0.00 | 37 | |
| 20260505062729 | 32 | 328 | 6.4 | 0.0 | 0.00 | 0.00 | 0.00 | 38 | |
| 20260505062221 | 32 | 319 | 3.2 | 0.0 | 0.00 | 0.00 | 0.00 | 38 | |
| 20260505061712 | 32 | 291 | 4.8 | 0.0 | 0.00 | 0.00 | 0.00 | 38 | |
| 20260505061204 | 32 | 298 | 6.4 | 0.0 | 0.00 | 0.00 | 0.00 | 39 | |
| 20260505060655 | 32 | 270 | 1.6 | 0.0 | 0.00 | 0.00 | 0.00 | 38 | |
| 20260505060146 | 32 | 332 | 6.4 | 0.0 | 0.00 | 0.00 | 0.00 | 39 | |
| 20260505055637 | 32 | 244 | 4.8 | 0.0 | 0.00 | 0.00 | 0.00 | 40 | |
| 20260505055129 | 32 | 281 | 8.0 | 0.0 | 0.00 | 0.00 | 0.00 | 39 | |
| 20260505054620 | 32 | 287 | 4.8 | 0.0 | 0.00 | 0.00 | 0.00 | 40 | |
| 20260505054111 | 32 | 267 | 6.4 | 0.0 | 0.00 | 0.00 | 0.00 | 39 | |
| 20260505053603 | 32 | 323 | 3.2 | 0.0 | 0.00 | 0.00 | 0.00 | 40 | |
| 20260505053052 | 32 | 251 | 1.6 | 0.0 | 0.00 | 0.00 | 0.00 | 41 | |
| 20260505052543 | 32 | 307 | 3.2 | 0.0 | 0.00 | 0.00 | 0.00 | 41 | |
| 20260505052034 | 32 | 282 | 8.0 | 0.0 | 0.00 | 0.00 | 0.00 | 41 | |
| 20260505051526 | 32 | 317 | 8.0 | 0.0 | 0.00 | 0.00 | 0.00 | 41 | |
| 20260505051018 | 32 | 286 | 6.4 | 0.0 | 0.00 | 0.00 | 0.00 | 42 | |
| 20260505050509 | 32 | 323 | 4.8 | 0.0 | 0.00 | 0.00 | 0.00 | 43 | |
| 20260505041340 | 32 | 244 | 4.8 | 0.0 | 0.00 | 0.00 | 0.00 | 45 | |
| 20260505040832 | 32 | 303 | 6.4 | 0.0 | 0.00 | 0.00 | 0.00 | 45 | |
| 20260505040324 | 32 | 288 | 6.4 | 0.0 | 0.00 | 0.00 | 0.00 | 45 | |
| 20260505035815 | 32 | 278 | 8.0 | 0.0 | 0.00 | 0.00 | 0.00 | 45 | |
| 20260505035307 | 32 | 280 | 6.4 | 0.0 | 0.00 | 0.00 | 0.00 | 45 | |
| 20260505034758 | 32 | 276 | 8.0 | 0.0 | 0.00 | 0.00 | 0.00 | 46 | |
| 20260505034250 | 32 | 285 | 8.0 | 0.0 | 0.00 | 0.00 | 0.00 | 46 | |
| 20260505033741 | 32 | 267 | 6.4 | 0.0 | 0.00 | 0.00 | 0.00 | 46 | |
| 20260505033233 | 32 | 275 | 8.0 | 0.0 | 0.00 | 0.00 | 0.00 | 45 | |
| 20260505032725 | 32 | 253 | 6.4 | 0.0 | 0.00 | 0.00 | 0.00 | 45 | |
| 20260505032216 | 32 | 317 | 6.4 | 0.0 | 0.00 | 0.00 | 0.00 | 46 | |
| 20260505031708 | 31 | 301 | 6.4 | 0.0 | 0.00 | 0.00 | 0.00 | 46 | |
| 20260505031159 | 31 | 314 | 6.4 | 0.0 | 0.00 | 0.00 | 0.00 | 46 | |
| 20260505030650 | 31 | 271 | 9.7 | 0.0 | 0.00 | 0.00 | 0.00 | 46 | |
| 20260505030142 | 31 | 271 | 3.2 | 0.0 | 0.00 | 0.00 | 0.00 | 46 | |
| 20260505025633 | 31 | 272 | 8.0 | 0.0 | 0.00 | 0.00 | 0.00 | 46 | |
| 20260505025125 | 31 | 275 | 8.0 | 0.0 | 0.00 | 0.00 | 0.00 | 47 | |
| 20260505024616 | 31 | 288 | 11.3 | 0.0 | 0.00 | 0.00 | 0.00 | 47 | |
| 20260505024107 | 31 | 286 | 6.4 | 0.0 | 0.00 | 0.00 | 0.00 | 47 | |
| 20260505023559 | 31 | 281 | 9.7 | 0.0 | 0.00 | 0.00 | 0.00 | 47 | |
| 20260505023051 | 31 | 284 | 9.7 | 0.0 | 0.00 | 0.00 | 0.00 | 47 | |
| 20260505022542 | 31 | 267 | 8.0 | 0.0 | 0.00 | 0.00 | 0.00 | 49 | |
| 20260505022034 | 31 | 281 | 3.2 | 0.0 | 0.00 | 0.00 | 0.00 | 48 | |
| 20260505021525 | 31 | 318 | 6.4 | 0.0 | 0.00 | 0.00 | 0.00 | 48 | |
| 20260505021016 | 31 | 347 | 3.2 | 0.0 | 0.00 | 0.00 | 0.00 | 50 | |
| 20260505020508 | 31 | 273 | 4.8 | 0.0 | 0.00 | 0.00 | 0.00 | 50 | |
| 20260505015959 | 31 | 302 | 6.4 | 0.0 | 0.00 | 0.00 | 0.00 | 51 | |
| 20260505015451 | 31 | 288 | 4.8 | 0.0 | 0.00 | 0.00 | 0.00 | 48 | |
| 20260505013152 | 31 | 279 | 6.4 | 0.0 | 0.00 | 0.00 | 0.00 | 48 | |
| 20260505012644 | 31 | 281 | 6.4 | 0.0 | 0.00 | 0.00 | 0.00 | 49 | |
| 20260505012135 | 31 | 277 | 6.4 | 0.0 | 0.00 | 0.00 | 0.00 | 46 | |
| 20260505011626 | 31 | 304 | 4.8 | 0.0 | 0.00 | 0.00 | 0.00 | 46 | |
| 20260505011117 | 31 | 278 | 6.4 | 0.0 | 0.00 | 0.00 | 0.00 | 45 | |
| 20260505010609 | 31 | 272 | 6.4 | 0.0 | 0.00 | 0.00 | 0.00 | 45 | |
| 20260505010101 | 31 | 267 | 6.4 | 0.0 | 0.00 | 0.00 | 0.00 | 45 | |
| 20260505005552 | 31 | 268 | 6.4 | 0.0 | 0.00 | 0.00 | 0.00 | 45 | |
| 20260505005043 | 31 | 322 | 4.8 | 0.0 | 0.00 | 0.00 | 0.00 | 45 | |
| 20260505004535 | 31 | 302 | 6.4 | 0.0 | 0.00 | 0.00 | 0.00 | 45 | |
| 20260505004026 | 31 | 285 | 4.8 | 0.0 | 0.00 | 0.00 | 0.00 | 45 | |
| 20260505003517 | 31 | 325 | 3.2 | 0.0 | 0.00 | 0.00 | 0.00 | 45 | |
| 20260505003008 | 31 | 283 | 3.2 | 0.0 | 0.00 | 0.00 | 0.00 | 45 | |
| 20260505002500 | 31 | 284 | 4.8 | 0.0 | 0.00 | 0.00 | 0.00 | 45 | |
| 20260505001951 | 31 | 275 | 6.4 | 0.0 | 0.00 | 0.00 | 0.00 | 45 | |
| 20260505001443 | 31 | 287 | 4.8 | 0.0 | 0.00 | 0.00 | 0.00 | 44 | |
| 20260505000935 | 31 | 280 | 6.4 | 0.0 | 0.00 | 0.00 | 0.00 | 44 | |
| 20260505000428 | 31 | 274 | 4.8 | 0.0 | 0.00 | 0.00 | 0.00 | 45 | |
| 20260504235918 | 31 | 266 | 8.0 | 0.0 | 0.00 | 0.00 | 0.00 | 45 | |
| 20260504235410 | 31 | 267 | 4.8 | 0.0 | 0.00 | 0.00 | 0.00 | 44 | |
| 20260504234901 | 31 | 319 | 3.2 | 0.0 | 0.00 | 0.00 | 0.00 | 44 | |
| 20260504234353 | 31 | 318 | 3.2 | 0.0 | 0.00 | 0.00 | 0.00 | 44 | |
| 20260504233844 | 31 | 317 | 4.8 | 0.0 | 0.00 | 0.00 | 0.00 | 44 | |
| 20260504233336 | 31 | 311 | 4.8 | 0.0 | 0.00 | 0.00 | 0.00 | 44 | |
| 20260504232827 | 31 | 262 | 4.8 | 0.0 | 0.00 | 0.00 | 0.00 | 44 | |
| 20260504232318 | 31 | 267 | 9.7 | 0.0 | 0.00 | 0.00 | 0.00 | 44 | |
| 20260504231810 | 31 | 273 | 4.8 | 0.0 | 0.00 | 0.00 | 0.00 | 44 | |
| 20260504231301 | 31 | 284 | 4.8 | 0.0 | 0.00 | 0.00 | 0.00 | 44 | |
| 20260504230753 | 31 | 267 | 6.4 | 0.0 | 0.00 | 0.00 | 0.00 | 44 | |
| 20260504230244 | 31 | 268 | 4.8 | 0.0 | 0.00 | 0.00 | 0.00 | 44 | |
| 20260504225736 | 31 | 278 | 3.2 | 0.0 | 0.00 | 0.00 | 0.00 | 44 | |
| 20260504225227 | 31 | 270 | 4.8 | 0.0 | 0.00 | 0.00 | 0.00 | 44 | |
| 20260504224718 | 31 | 288 | 6.4 | 0.0 | 0.00 | 0.00 | 0.00 | 44 | |
| 20260504224210 | 31 | 274 | 4.8 | 0.0 | 0.00 | 0.00 | 0.00 | 44 | |
| 20260504223701 | 31 | 276 | 6.4 | 0.0 | 0.00 | 0.00 | 0.00 | 44 | |
| 20260504223153 | 31 | 279 | 6.4 | 0.0 | 0.00 | 0.00 | 0.00 | 44 | |
| 20260504222644 | 31 | 287 | 4.8 | 0.0 | 0.00 | 0.00 | 0.00 | 44 | |
| 20260504222135 | 31 | 271 | 4.8 | 0.0 | 0.00 | 0.00 | 0.00 | 44 | |
| 20260504221627 | 31 | 300 | 3.2 | 0.0 | 0.00 | 0.00 | 0.00 | 44 | |
| 20260504221118 | 31 | 269 | 4.8 | 0.0 | 0.00 | 0.00 | 0.00 | 44 | |
| 20260504220610 | 31 | 329 | 4.8 | 0.0 | 0.00 | 0.00 | 0.00 | 44 | |
| 20260504220101 | 31 | 280 | 3.2 | 0.0 | 0.00 | 0.00 | 0.00 | 44 | |
| 20260504215552 | 31 | 279 | 4.8 | 0.0 | 0.00 | 0.00 | 0.00 | 44 | |
| 20260504215044 | 31 | 326 | 3.2 | 0.0 | 0.00 | 0.00 | 0.00 | 44 | |
| 20260504214535 | 31 | 293 | 3.2 | 0.0 | 0.00 | 0.00 | 0.00 | 44 | |
| 20260504214027 | 31 | 340 | 1.6 | 0.0 | 0.00 | 0.00 | 0.00 | 44 | |
| 20260504213518 | 31 | 307 | 3.2 | 0.0 | 0.00 | 0.00 | 0.00 | 44 | |
| 20260504213010 | 31 | 264 | 3.2 | 0.0 | 0.00 | 0.00 | 0.00 | 44 | |
| 20260504212501 | 31 | 340 | 4.8 | 0.0 | 0.00 | 0.00 | 0.00 | 44 | |
| 20260504211953 | 31 | 308 | 3.2 | 0.0 | 0.00 | 0.00 | 0.00 | 44 | |
| 20260504211444 | 31 | 298 | 4.8 | 0.0 | 0.00 | 0.00 | 0.00 | 44 | |
| 20260504210935 | 31 | 340 | 4.8 | 0.0 | 0.00 | 0.00 | 0.00 | 44 | |
| 20260504210427 | 31 | 254 | 3.2 | 0.0 | 0.00 | 0.00 | 0.00 | 44 | |
| 20260504205919 | 31 | 287 | 3.2 | 0.0 | 0.00 | 0.00 | 0.00 | 44 | |
| 20260504205410 | 31 | 295 | 3.2 | 0.0 | 0.00 | 0.00 | 0.00 | 44 | |
| 20260504204901 | 31 | 277 | 3.2 | 0.0 | 0.00 | 0.00 | 0.00 | 44 | |
| 20260504204353 | 31 | 314 | 1.6 | 0.0 | 0.00 | 0.00 | 0.00 | 44 | |
| 20260504203845 | 31 | 266 | 3.2 | 0.0 | 0.00 | 0.00 | 0.00 | 44 | |
| 20260504203336 | 32 | 277 | 4.8 | 0.0 | 0.00 | 0.00 | 0.00 | 44 | |
| 20260504202827 | 32 | 313 | 3.2 | 0.0 | 0.00 | 0.00 | 0.00 | 44 | |
| 20260504202319 | 32 | 293 | 3.2 | 0.0 | 0.00 | 0.00 | 0.00 | 44 | |
| 20260504201810 | 32 | 277 | 4.8 | 0.0 | 0.00 | 0.00 | 0.00 | 44 | |
| 20260504201302 | 32 | 325 | 3.2 | 0.0 | 0.00 | 0.00 | 0.00 | 44 | |
| 20260504200753 | 32 | 271 | 3.2 | 0.0 | 0.00 | 0.00 | 0.00 | 44 | |
| 20260504200244 | 32 | 288 | 4.8 | 0.0 | 0.00 | 0.00 | 0.00 | 44 | |
| 20260504195736 | 32 | 284 | 4.8 | 0.0 | 0.00 | 0.00 | 0.00 | 44 | |
| 20260504195228 | 32 | 276 | 4.8 | 0.0 | 0.00 | 0.00 | 0.00 | 44 | |
| 20260504194719 | 32 | 270 | 4.8 | 0.0 | 0.00 | 0.00 | 0.00 | 44 | |
| 20260504194210 | 32 | 273 | 6.4 | 0.0 | 0.00 | 0.00 | 0.00 | 44 | |
| 20260504193701 | 32 | 289 | 4.8 | 0.0 | 0.00 | 0.00 | 0.00 | 44 | |
| 20260504193150 | 32 | 264 | 6.4 | 0.0 | 0.00 | 0.00 | 0.00 | 44 | |
| 20260504192641 | 32 | 284 | 6.4 | 0.0 | 0.00 | 0.00 | 0.00 | 44 | |
| 20260504192132 | 32 | 286 | 4.8 | 0.0 | 0.00 | 0.00 | 0.00 | 44 | |
| 20260504191624 | 32 | 297 | 4.8 | 0.0 | 0.00 | 0.00 | 0.00 | 44 | |
| 20260504191115 | 32 | 276 | 4.8 | 0.0 | 0.00 | 0.00 | 0.00 | 44 | |
| 20260504190607 | 32 | 269 | 6.4 | 0.0 | 0.00 | 0.00 | 0.00 | 44 | |
| 20260504190059 | 32 | 281 | 8.0 | 0.0 | 0.00 | 0.00 | 0.00 | 44 | |
| 20260504185550 | 32 | 280 | 4.8 | 0.0 | 0.00 | 0.00 | 0.00 | 43 | |
| 20260504185042 | 32 | 271 | 8.0 | 0.0 | 0.00 | 0.00 | 0.00 | 43 | |
| 20260504184533 | 32 | 312 | 4.8 | 0.0 | 0.00 | 0.00 | 0.00 | 43 | |
| 20260504184024 | 32 | 299 | 6.4 | 0.0 | 0.00 | 0.00 | 0.00 | 43 | |
| 20260504183515 | 32 | 276 | 4.8 | 0.0 | 0.00 | 0.00 | 0.43 | 43 | |
| 20260504183007 | 32 | 322 | 4.8 | 0.0 | 0.00 | 0.00 | 0.43 | 43 | |
| 20260504182458 | 32 | 305 | 4.8 | 0.0 | 0.00 | 0.00 | 0.43 | 44 | |
| 20260504181946 | 32 | 320 | 4.8 | 0.0 | 0.00 | 0.00 | 0.43 | 43 | |
| 20260504181438 | 32 | 269 | 4.8 | 0.0 | 0.00 | 0.00 | 0.43 | 42 | |
| 20260504180929 | 32 | 289 | 4.8 | 0.0 | 0.00 | 0.00 | 0.43 | 43 | |
| 20260504174435 | 33 | 316 | 1.6 | 0.0 | 0.00 | 0.00 | 0.43 | 41 | |
| 20260504173314 | 33 | 316 | 1.6 | 0.0 | 0.00 | 0.00 | 0.43 | 41 | |
| 20260504172805 | 33 | 287 | 4.8 | 0.0 | 0.00 | 0.00 | 0.43 | 41 | |
| 20260504172252 | 33 | 287 | 4.8 | 0.0 | 0.00 | 0.00 | 0.43 | 41 | |
| 20260504171740 | 33 | 266 | 6.4 | 0.0 | 0.00 | 0.00 | 0.43 | 41 | |
| 20260504171227 | 33 | 266 | 6.4 | 0.0 | 0.00 | 0.00 | 0.43 | 41 | |
| 20260504170719 | 33 | 265 | 4.8 | 0.0 | 0.00 | 0.00 | 0.43 | 41 | |
| 20260504170210 | 33 | 276 | 3.2 | 0.0 | 0.00 | 0.00 | 0.43 | 41 | |
| 20260504081918 | 101 | 280 | 8.0 | 0.0 | 0.00 | 0.00 | 0.43 | 21 | |
| 20260504081410 | 101 | 274 | 9.7 | 0.0 | 0.00 | 0.00 | 0.43 | 21 | |
| 20260504080901 | 101 | 317 | 11.3 | 0.0 | 0.00 | 0.00 | 0.43 | 21 | |
| 20260504080353 | 101 | 300 | 6.4 | 0.0 | 0.00 | 0.00 | 0.43 | 21 |